Showing default

NIMBUS 4, 4362

Orbit data source: Space-Track

NIMBUS 4, 4362 is a payload satellite owned by GSFC (US) in SSO that was launched on Wed, 08 Apr 1970 UTC via a THORAD SLV-2G AGENA D launch vehicle from the Air Force Western Test Range (AFWTR). Payload-class satellites include a variety of spacecraft equipped with specific instruments for various scientific and technological missions. These include communications satellites like Starlink; space stations such as the ISS; scientific satellites like the Hubble; Earth observation satellites from companies like Planet Labs, Umbra, and HawkEye 360; GPS; miniature CubeSats for education and research; and military/defense satellites.

Loading next visibility...
Identifier
4362, 1970-025A
Orbit
SSO
Country
Flag of USUS
Related business
Manufacturer
GE/MSVD
Mission
Non-operational spacecraft
Bus & Motor
NIMBUS, Unknown motor
Mass
619 kg wet, 619 kg dry
Launch date (UTC)
1970-04-08 (56 years ago)
Launch vehicle
THORAD SLV-2G AGENA D
Launch site
Air Force Western Test Range (AFWTR)
Object type
Payload
Rocket body
Debris
Shape & HBR
Unknown
Radar Cross Section
Large (>1 m²)

Expand to show TLE details & history
Last TLE update: 7 hours ago

TLE from 7 hours ago
0 NIMBUS 4
1 04362U 70025A   26126.22051957 -.00000003  00000-0  71000-4 0  9993
2 04362  99.9619  47.7223 0008205  98.4741  61.0321 13.44753461751209
Epoch: 2026-05-06T05:17Z
TLE epoch observation values (Epoch: 2026-05-06T05:17:32.890Z)
Latitude
20.09513°
Longitude
-72.08351°
Altitude
1,091.035 km
Speed
7.31 km/s
True Right ascension
15h 25m 33s
True Declination
19° 59' 22"
Sunlit
Object was in full shadow at epoch
Visualization orbit readout
Latitude
Unknown
Longitude
Unknown
Altitude
Unknown
Speed
Unknown
Apparent Right ascension
Unknown
Apparent Declination
Unknown
Sunlit
N/A
Visualization observer readout
Local Sidereal Time
20:13:08
Azimuth
Unknown
Elevation
Unknown
Doppler factor
Unknown
Orbital elements
Apogee altitude
1,095.073 km
Perigee altitude
1,082.82 km
Semi-major axis
7,467.083 km
Eccentricity
0.00082
Inclination
99.9619°
RAAN
47.7223°
Arg. of periapsis
98.4741°
True anomaly
61.1144°
Mean anomaly
61.0321°
Eccentric anomaly
61.07325°
Mean motion
3.3637 °/min
Orbital period
107.03 mins
BSTAR
0.000071

Documentation

Showing up to 5 results
|